Regional Weather Roundup
Issued by NWS

Home | Current Version | Previous Version | Graphics & Text | Print | Product List | Glossary On
Versions: 1 2 3 4 5 6 7 8 9 10 11 12 13 14 15 16 17 18 19 20 21 22 23 24 25 26 27 28 29 30 31 32 33 34 35 36 37 38 39 40 41 42 43 44 45 46 47 48 49 50
576
ASUS43 KOAX 250810
RWRNE

WEATHER ROUNDUP FOR NEBRASKA
NATIONAL WEATHER SERVICE OMAHA NE
300 AM CDT SUN JUN 25 2017

NOTES: SATELLITE DATA IS BEING USED TO AUGMENT CLOUD COVER ABOVE
       12000 FEET.
       "FAIR" INDICATES FEW OR NO CLOUDS BELOW 12,000 FEET WITH NO
       SIGNIFICANT WEATHER AND/OR OBSTRUCTIONS TO VISIBILITY.

  * THESE STATIONS DO NOT REPORT WEATHER SUCH AS RAIN...SNOW OR FOG.

NEZ001>004-019>022-054>056-250900-
NEBRASKA PANHANDLE

CITY           SKY/WX    TMP DP  RH WIND       PRES   REMARKS
SCOTTSBLUFF    CLOUDY    60  38  43 NE15      30.36R
ALLIANCE       CLOUDY    55  37  50 E6        30.37S
CHADRON        CLOUDY    55  37  50 N7        30.36S
GORDON         FAIR      50  39  65 N6        30.37R
KIMBALL        MOCLDY    50  44  80 SE5       30.37S
SIDNEY         CLEAR     47  40  76 S6        30.35F
$$

NEZ057>060-069>072-079>082-250900-
SOUTHWEST NEBRASKA

CITY           SKY/WX    TMP DP  RH WIND       PRES   REMARKS
NORTH PLATTE   PTCLDY    44  38  79 CALM      30.33R
IMPERIAL       CLEAR     51  45  79 SW3       30.32F
LEXINGTON      CLEAR     50  42  73 N9        30.31R
MCCOOK         CLEAR     53  49  86 SW8       30.29F
OGALLALA       CLEAR     49  36  60 CALM      30.32S
$$

NEZ005>010-023>029-035>040-094-250900-
NORTH CENTRAL NEBRASKA

CITY           SKY/WX    TMP DP  RH WIND       PRES   REMARKS
VALENTINE      CLOUDY    48  34  58 NW3       30.35S
AINSWORTH      MOCLDY    49  38  66 NW3       30.35R
BROKEN BOW     MOCLDY    55  39  54 N7        30.33R
O`NEILL        PTCLDY    48  42  80 W3        30.33R
ORD            PTCLDY    49  37  63 N5        30.31R
THEDFORD       CLOUDY    50  38  64 CALM      30.37S
$$

NEZ041-046>049-061>064-073>077-083>087-250900-
SOUTH CENTRAL NEBRASKA

CITY           SKY/WX    TMP DP  RH WIND       PRES   REMARKS
GRAND ISLAND   PTCLDY    50  45  83 N6        30.30R
AURORA         CLEAR     51  43  74 N9        30.29R
HASTINGS       PTCLDY    53  43  68 W3        30.30R
HEBRON         CLEAR     53  49  87 CALM      30.27R
HOLDREGE       CLEAR     52  43  72 CALM      30.27F
KEARNEY *      CLEAR     54  39  58 NW5       30.30S
YORK           CLEAR     52  43  71 N7        30.29R
$$

NEZ011>018-030>034-042>045-250900-
NORTHEAST NEBRASKA

CITY           SKY/WX    TMP DP  RH WIND       PRES   REMARKS
NORFOLK        PTCLDY    50  40  68 NW6       30.28R
ALBION         PTCLDY    49  39  68 CALM      30.30S
BLAIR          CLEAR     57  42  55 N8        30.24R
FREMONT        CLEAR     51  43  74 W5        30.26R
TEKAMAH        CLEAR     53  40  61 NW7       30.24R
WAYNE          CLEAR     50  41  71 CALM      30.27S
$$

NEZ050>053-065>068-078-088>093-250900-
SOUTHEAST NEBRASKA

CITY           SKY/WX    TMP DP  RH WIND       PRES   REMARKS
LINCOLN        PTCLDY    52  45  77 N6        30.27R
OMAHA EPPLEY   CLEAR     55  44  66 N5        30.24R
BEATRICE       PTCLDY    54  49  85 CALM      30.25R
FALLS CITY     CLEAR     54  48  80 NW7       30.21R
NEBRASKA CITY  CLEAR     58  47  66 N7        30.24R
PLATTSMOUTH    PTCLDY    60  41  50 CALM      30.24S
$$

NEZ044-045-051>053-067-250900-
OMAHA AREA

CITY           SKY/WX    TMP DP  RH WIND       PRES   REMARKS
OMAHA EPPLEY   CLEAR     55  44  66 N5        30.24R
BLAIR          CLEAR     57  42  55 N8        30.24R
FREMONT        CLEAR     51  43  74 W5        30.26R
MILLARD        PTCLDY    61  45  55 NW3       30.25R
OFFUTT AFB     PTCLDY    57  42  57 N6        30.23R
PLATTSMOUTH    PTCLDY    60  41  50 CALM      30.24S
WAHOO          FAIR      55  40  58 NW9       30.26R
$$




USA.gov is the U.S. government's official web portal to all federal, state and local government web resources and services.